Kilmarnock, Virginia, United States (22482)
Lat: 37.71N, Lon: 76.38W
Wx Zone: VAZ078
Local Info
Past Weather Observations for Yesterday

NOTE: This archive is for the closest National Weather Service station to Kilmarnock. Information may differ from the station used for current weather conditions.

Click here for Long-term Archive

Time Weather Temperature Dewpoint Humidity Pressure Winds Precip Visibility
23:55
Partly Cloudy
77°F / 25°C 66°F / 19°C 69% 30.18 in
(1022 mb)
S 4.6 mph
(S 7 kph)
- 10SM
23:15
Clear
77°F / 25°C 68°F / 20°C 74% 30.18 in
(1022 mb)
SSE 4.6 mph
(SSE 7 kph)
- 10SM
22:55
Clear
75°F / 24°C 68°F / 20°C 78% 30.18 in
(1022 mb)
SE 4.6 mph
(SE 7 kph)
- 10SM
22:35
Clear
73°F / 23°C 68°F / 20°C 83% 30.18 in
(1022 mb)
E 3.5 mph
(E 6 kph)
- 10SM
22:15
Clear
75°F / 24°C 68°F / 20°C 78% 30.15 in
(1021 mb)
Calm - 10SM
21:55
Clear
73°F / 23°C 68°F / 20°C 83% 30.15 in
(1021 mb)
E 3.5 mph
(E 6 kph)
- 10SM
21:35
Clear
73°F / 23°C 68°F / 20°C 83% 30.15 in
(1021 mb)
Calm - 10SM
21:15
Clear
75°F / 24°C 68°F / 20°C 78% 30.15 in
(1021 mb)
Calm - 10SM
20:55
Clear
75°F / 24°C 68°F / 20°C 78% 30.15 in
(1021 mb)
Calm - 10SM
20:35
Clear
75°F / 24°C 66°F / 19°C 74% 30.15 in
(1021 mb)
Calm - 10SM
20:15
Clear
79°F / 26°C 66°F / 19°C 65% 30.15 in
(1021 mb)
Calm - 10SM
19:55
Clear
79°F / 26°C 66°F / 19°C 65% 30.15 in
(1021 mb)
S 3.5 mph
(S 6 kph)
- 10SM
19:35
Clear
81°F / 27°C 66°F / 19°C 62% 30.15 in
(1021 mb)
Calm - 10SM
19:15
Clear
81°F / 27°C 66°F / 19°C 62% 30.15 in
(1021 mb)
S 3.5 mph
(S 6 kph)
- 10SM
18:35
Clear
82°F / 28°C 66°F / 19°C 58% 30.15 in
(1021 mb)
S 4.6 mph
(S 7 kph)
- 10SM
18:15
Clear
82°F / 28°C 66°F / 19°C 58% 30.12 in
(1020 mb)
S 4.6 mph
(S 7 kph)
- 10SM
17:55
Clear
82°F / 28°C 66°F / 19°C 58% 30.12 in
(1020 mb)
SSE 6.9 mph
(SSE 11 kph)
- 10SM
17:35
Clear
84°F / 29°C 66°F / 19°C 55% 30.12 in
(1020 mb)
SE 5.8 mph
(SE 9 kph)
- 10SM
17:15
Clear
84°F / 29°C 64°F / 18°C 51% 30.12 in
(1020 mb)
SSE 4.6 mph
(SSE 7 kph)
- 10SM
16:55
Clear
84°F / 29°C 63°F / 17°C 48% 30.12 in
(1020 mb)
S 4.6 mph
(S 7 kph)
- 10SM
16:35
Clear
86°F / 30°C 61°F / 16°C 43% 30.12 in
(1020 mb)
SSE 5.8 mph
(SSE 9 kph)
- 10SM
16:15
Clear
86°F / 30°C 63°F / 17°C 46% 30.12 in
(1020 mb)
SW 3.5 mph
(SW 6 kph)
- 10SM
15:55
Clear
86°F / 30°C 63°F / 17°C 46% 30.12 in
(1020 mb)
S 4.6 mph
(S 7 kph)
- 10SM
15:35
Clear
86°F / 30°C 63°F / 17°C 46% 30.12 in
(1020 mb)
S 4.6 mph
(S 7 kph)
- 10SM
15:15
Clear
86°F / 30°C 61°F / 16°C 43% 30.12 in
(1020 mb)
S 6.9 mph
(S 11 kph)
- 10SM
14:55
Partly Cloudy
86°F / 30°C 61°F / 16°C 43% 30.12 in
(1020 mb)
S 6.9 mph
(S 11 kph)
- 10SM
14:35
Clear
86°F / 30°C 63°F / 17°C 46% 30.12 in
(1020 mb)
S 4.6 mph
(S 7 kph)
- 10SM
14:15
Partly Cloudy
86°F / 30°C 63°F / 17°C 46% 30.12 in
(1020 mb)
S 4.6 mph
(S 7 kph)
- 10SM
13:55
Partly Cloudy
86°F / 30°C 63°F / 17°C 46% 30.12 in
(1020 mb)
S 6.9 mph
(S 11 kph)
- 10SM
13:35
Partly Cloudy
84°F / 29°C 63°F / 17°C 48% 30.15 in
(1021 mb)
S 6.9 mph
(S 11 kph)
- 10SM
13:15
Clear
84°F / 29°C 61°F / 16°C 45% 30.15 in
(1021 mb)
SSE 6.9 mph
(SSE 11 kph)
- 10SM
12:55
Clear
84°F / 29°C 63°F / 17°C 48% 30.15 in
(1021 mb)
SW 4.6 mph
(SW 7 kph)
- 10SM
12:35
Clear
84°F / 29°C 61°F / 16°C 45% 30.15 in
(1021 mb)
SSE 6.9 mph
(SSE 11 kph)
- 10SM
12:15
Clear
84°F / 29°C 61°F / 16°C 45% 30.15 in
(1021 mb)
SSE 6.9 mph
(SSE 11 kph)
- 10SM
11:55
Partly Cloudy
84°F / 29°C 63°F / 17°C 48% 30.15 in
(1021 mb)
SW 5.8 mph
(SW 9 kph)
- 10SM
11:35
Clear
84°F / 29°C 61°F / 16°C 45% 30.15 in
(1021 mb)
SSE 8.1 mph
(SSE 13 kph)
- 10SM
11:15
Clear
84°F / 29°C 64°F / 18°C 51% 30.15 in
(1021 mb)
SW 8.1 mph
(SW 13 kph)
- 10SM
10:55
Clear
82°F / 28°C 64°F / 18°C 55% 30.15 in
(1021 mb)
SSE 6.9 mph
(SSE 11 kph)
- 10SM
10:35
Clear
82°F / 28°C 64°F / 18°C 55% 30.15 in
(1021 mb)
SSW 6.9 mph
(SSW 11 kph)
- 10SM
10:15
Clear
82°F / 28°C 64°F / 18°C 55% 30.15 in
(1021 mb)
SW 6.9 mph
(SW 11 kph)
- 10SM
09:55
Clear
81°F / 27°C 64°F / 18°C 58% 30.15 in
(1021 mb)
SW 6.9 mph
(SW 11 kph)
- 10SM
09:35
Clear
81°F / 27°C 64°F / 18°C 58% 30.15 in
(1021 mb)
SW 8.1 mph
(SW 13 kph)
- 10SM
09:15
Clear
81°F / 27°C 64°F / 18°C 58% 30.15 in
(1021 mb)
S 6.9 mph
(S 11 kph)
- 10SM
08:55
Clear
79°F / 26°C 64°F / 18°C 61% 30.15 in
(1021 mb)
S 4.6 mph
(S 7 kph)
- 10SM
08:35
Clear
77°F / 25°C 64°F / 18°C 65% 30.15 in
(1021 mb)
S 4.6 mph
(S 7 kph)
- 10SM
08:15
Clear
77°F / 25°C 64°F / 18°C 65% 30.15 in
(1021 mb)
SSE 4.6 mph
(SSE 7 kph)
- 10SM
07:55
Clear
75°F / 24°C 64°F / 18°C 69% 30.15 in
(1021 mb)
S 3.5 mph
(S 6 kph)
- 10SM
07:35
Clear
75°F / 24°C 64°F / 18°C 69% 30.15 in
(1021 mb)
S 5.8 mph
(S 9 kph)
- 10SM
07:15
Clear
73°F / 23°C 64°F / 18°C 74% 30.15 in
(1021 mb)
S 4.6 mph
(S 7 kph)
- 10SM
06:55
Clear
72°F / 22°C 66°F / 19°C 83% 30.15 in
(1021 mb)
S 3.5 mph
(S 6 kph)
- 10SM
06:35
Clear
72°F / 22°C 64°F / 18°C 78% 30.15 in
(1021 mb)
S 4.6 mph
(S 7 kph)
- 10SM
06:15
Clear
72°F / 22°C 64°F / 18°C 78% 30.12 in
(1020 mb)
Calm - 10SM
05:55
Clear
70°F / 21°C 64°F / 18°C 83% 30.12 in
(1020 mb)
Calm - 10SM
05:35
Clear
66°F / 19°C 63°F / 17°C 88% 30.12 in
(1020 mb)
Calm - 10SM
05:15
Clear
70°F / 21°C 64°F / 18°C 83% 30.12 in
(1020 mb)
S 3.5 mph
(S 6 kph)
- 10SM
04:55
Clear
68°F / 20°C 63°F / 17°C 83% 30.12 in
(1020 mb)
Calm - 10SM
04:35
Clear
68°F / 20°C 64°F / 18°C 88% 30.12 in
(1020 mb)
Calm - 10SM
04:15
Clear
70°F / 21°C 64°F / 18°C 83% 30.12 in
(1020 mb)
Calm - 10SM
03:55
Clear
70°F / 21°C 64°F / 18°C 83% 30.12 in
(1020 mb)
SE 3.5 mph
(SE 6 kph)
- 10SM
03:35
Clear
70°F / 21°C 63°F / 17°C 78% 30.12 in
(1020 mb)
SE 3.5 mph
(SE 6 kph)
- 10SM
03:15
Clear
70°F / 21°C 63°F / 17°C 78% 30.09 in
(1019 mb)
Calm - 10SM
02:55
Clear
70°F / 21°C 63°F / 17°C 78% 30.12 in
(1020 mb)
SSE 4.6 mph
(SSE 7 kph)
- 10SM
02:35
Clear
70°F / 21°C 63°F / 17°C 78% 30.12 in
(1020 mb)
SE 4.6 mph
(SE 7 kph)
- 10SM
02:15
Clear
68°F / 20°C 63°F / 17°C 83% 30.12 in
(1020 mb)
SE 3.5 mph
(SE 6 kph)
- 10SM
01:55
Clear
68°F / 20°C 63°F / 17°C 83% 30.12 in
(1020 mb)
SE 3.5 mph
(SE 6 kph)
- 10SM
01:35
Clear
68°F / 20°C 63°F / 17°C 83% 30.12 in
(1020 mb)
Calm - 10SM
01:15
Clear
72°F / 22°C 63°F / 17°C 73% 30.12 in
(1020 mb)
Calm - 10SM
00:55
Clear
70°F / 21°C 63°F / 17°C 78% 30.09 in
(1019 mb)
Calm - 10SM
00:35
Clear
70°F / 21°C 63°F / 17°C 78% 30.09 in
(1019 mb)
Calm - 10SM
00:15
Clear
72°F / 22°C 63°F / 17°C 73% 30.09 in
(1019 mb)
SSE 4.6 mph
(SSE 7 kph)
- 10SM
Time Weather Temperature Dewpoint Humidity Pressure Winds Precip Visibility


Weather for websites

WeatherForYou.com, LLC is not responsible for any damages or problems caused by this service. Current weather conditions are obtained from the closest station including government and personal stations which may have varying degrees of accuracy. Weather forecasts are derived from the NOAA NDFD. Like all things, this site belongs to Jesus Christ... He just trusts me to maintain it. If you have any questions or comments email webmaster@weatherforyou.com

Copyright © 2014, WeatherForYou.com LLC. All rights reserved.